Location: Newark
(48.6461°N, 4.3644°W)
Time: 11:20:06
(UTC+00:00)

A-11 Canister half - Pass Details

Date: 29 January 2020
Orbit: 1517 x 1683 km, 47.2° (Epoch: 25 February)

Event Time Altitude Azimuth Distance (km) Brightness Sun altitude
Exits shadow 03:36:40 42° 131° (SE) 2,044 9.6 -41.7°
Drops below altitude 10° 03:42:21 10° 119° (ESE) 3,690 11.3 -40.8°
Sets 03:45:25 0° 117° (ESE) 4,683 12.0 -40.3°
